Tracking 19281 objects as of 17-Nov-2018
HD Live streaming from Space Station
objects crossing your sky now

TVSAT 2

Track TVSAT 2 now!
TVSAT 2 is classified as:


NORAD ID: 20168
Int'l Code: 1989-062A
Perigee: 35,886.9 km
Apogee: 35,938.9 km
Inclination: 14.5 °
Period: 1,442.2 minutes
Semi major axis: 42283 km
RCS: 2.0976 m2 (large)
Launch date: August 8, 1989
Source: Germany (GER)
Launch site: FRENCH GUIANA (FRGUI)
aabbcc
Your satellite tracking list
Your tracking list is empty




NASA's NSSDC Master Catalog

Two Line Element Set (TLE):
1 20168U 89062A   18320.55081109 -.00000349 +00000-0 +00000-0 0  9992
2 20168 014.4628 018.4582 0006157 222.2520 134.1687 00.99848228106845
Source of the keplerian elements: AFSPC